Location: *
(11.7485°N, 79.7483°E)
Time: 11:17:49
(UTC+00:00)

Cosmos 1689 Rocket - Pass Details

Date: 22 January 2021
Orbit: 353 x 368 km, 97.5° (Epoch: 24 February)

Event Time Altitude Azimuth Distance (km) Brightness Sun altitude
Rises 00:18:15 0° 150° (SSE) 2,223 6.7 -11.9°
Reaches altitude 10° 00:20:23 10° 136° (SE) 1,373 5.9 -11.4°
Maximum altitude 00:22:52 26° 78° (ENE) 786 4.4 -10.8°
Drops below altitude 10° 00:25:22 10° 19° (NNE) 1,371 4.9 -10.2°
Sets 00:27:29 0° 6° (N) 2,218 5.8 -9.7°
